KURESSAARE current weather conditions

sailwx.info

Wind from 270 at 6 knots

Air temperature 1.0° C
Visibility: greater than 5.4 NM
Dewpoint -0.0° C

Last reported at 2016-Feb-12 03:50 UTC.
Time now 2016-Feb-12 05:38 UTC

Location: N 58°14' E 022°31'.
View on Google Maps.

See reports from other nearby stations

  
Tides and Currents Weather Stations Pressure Air Temp Water Temp Dewpoint Dewpoint Depression Visibility Wind Speed Wind Dir Waves Ship Positions
date/time (UTC)wind fromknots sea level pressurealtimeterstation pressurevisibilityair tempwater tempwave heightnotes
2016-Feb-12 03:50 270 6 5.4 1.0
2016-Feb-12 02:50 280 5 5.4 1.0
2016-Feb-12 01:50 290 6 5.4 1.0 Light rain.
2016-Feb-12 00:50 310 5 5.4 1.0
2016-Feb-11 23:50 310 5 5.4 1.0
2016-Feb-11 22:50 310 5 5.4 1.0
2016-Feb-11 21:50 320 4 5.4 1.0
2016-Feb-11 20:50 300 3 5.4 1.0
2016-Feb-11 19:50 280 3 5.4 1.0
2016-Feb-11 18:50 270 2 5.4 1.0
2016-Feb-11 17:50 290 2 5.4 2.0
2016-Feb-11 16:50 310 3 5.4 2.0
2016-Feb-11 15:50 300 3 5.4 2.0 Light rain.
2016-Feb-11 14:50 5.4 3.0
2016-Feb-11 13:50 230 3 5.4 2.0
2016-Feb-11 12:50 5.4 2.0
2016-Feb-11 11:50 5.4 2.0
2016-Feb-11 10:50 110 3 5.4 2.0
2016-Feb-11 09:50 190 5 5.4 3.0
2016-Feb-11 08:50 190 6 5.4 3.0
2016-Feb-11 07:50 190 5 5.4 2.0
2016-Feb-11 06:50 180 8 5.4 2.0
2016-Feb-11 05:50 170 6 5.4 2.0 Light rain.
2016-Feb-11 04:50 170 6 5.4 2.0 Light rain.
2016-Feb-11 03:50 170 8 4.3 2.0 Light rain.
2016-Feb-11 02:50 170 8 5.4 2.0
2016-Feb-11 01:50 170 7 5.4 2.0
2016-Feb-11 00:50 160 8 5.4 2.0
2016-Feb-10 23:50 190 9 5.4 4.0
2016-Feb-10 22:50 190 11 5.4 3.0
2016-Feb-10 21:50 200 10 5.4 3.0
2016-Feb-10 20:50 200 9 5.4 3.0
2016-Feb-10 19:50 200 12 5.4 4.0
2016-Feb-10 18:50 200 12 5.4 3.0
2016-Feb-10 17:50 200 11 5.4 3.0
2016-Feb-10 16:50 210 12 5.4 4.0
2016-Feb-10 15:50 210 10 5.4 3.0
2016-Feb-10 14:50 200 9 5.4 4.0
2016-Feb-10 13:50 190 14 5.4 4.0
2016-Feb-10 12:50 160 14 5.4 4.0
2016-Feb-10 11:50 160 16 5.4 4.0
2016-Feb-10 10:50 160 16 5.4 4.0
2016-Feb-10 09:50 160 17 5.4 3.0 Light rain.
2016-Feb-10 08:50 150 17 5.4 3.0 Light rain.
2016-Feb-10 07:50 150 17 5.4 3.0
2016-Feb-10 06:50 140 16 5.4 3.0 Light rain.
2016-Feb-10 05:50 120 12 5.4 2.0 Light rain.